Weather History for Bemidji, MN

Change the Weather History Date:

Monday, September 3, 2012

  Actual Average Record
Temperature  
Mean Temperature 66 °F -  
Max Temperature 87 °F 72 °F 91 °F (1948)
Min Temperature 46 °F 50 °F 34 °F (1974)
Cooling Degree Days 2    
Growing Degree Days 16 (Base 50)    
Moisture  
Dew Point 47 °F    
Average Humidity 65    
Maximum Humidity 100    
Minimum Humidity 14    
Precipitation  
Precipitation 0.09 in - - ()
Sea Level Pressure  
Sea Level Pressure 29.90 in    
Wind  
Wind Speed 4 mph (WSW)    
Max Wind Speed 31 mph    
Max Gust Speed 36 mph    
Visibility 9 miles    
Events Fog , Rain    
Averages and records for this station are not official NWS values.
T = Trace of Precipitation, MM = Missing Value Source: NWS Daily Summary

Daily Weather History Graph

Daily Weather History Graph

Search for Another Location

Airport:

Trip Planner

Search our weather history database for the weather conditions in past years. The results will help you decide how hot, cold, wet, or windy it might be!

Date:

Astronomy

Sep. 03, 2012 Rise Set
Actual Time 6:41 AM CDT 7:55 PM CDT
Civil Twilight 6:10 AM CDT 8:26 PM CDT
Nautical Twilight 5:31 AM CDT 9:04 PM CDT
Astronomical Twilight 4:51 AM CDT 9:45 PM CDT
Moon 8:54 PM CDT (9/3) 10:09 AM CDT (9/3)
Length of Visible Light 14h 16m
Length of Day
13h 13m
Waning Gibbous, 90% of the Moon is Illuminated
Sep 3
Waning Gibbous
Sep 8
Last Quarter
Sep 15
New
Sep 22
First Quarter
Sep 29
Full

Hourly Weather History & Observations

Time (CDT) Temp. Dew Point Humidity Pressure Visibility Wind Dir Wind Speed Gust Speed Precip Events Conditions
12:15 AM 64.4 °F 57.2 °F 77% 29.87 in 10.0 mi West 8.1 mph - N/A   Clear
12:35 AM 60.8 °F 55.4 °F 82% 29.87 in 10.0 mi West 3.5 mph - N/A   Clear
12:55 AM 59.0 °F 57.2 °F 94% 29.87 in 10.0 mi Calm Calm - N/A   Clear
1:15 AM 59.0 °F 57.2 °F 94% 29.88 in 10.0 mi Calm Calm - N/A   Clear
1:35 AM 59.0 °F 57.2 °F 94% 29.87 in 10.0 mi Calm Calm - N/A   Clear
1:55 AM 57.2 °F 55.4 °F 94% 29.88 in 10.0 mi Calm Calm - N/A   Clear
2:15 AM 55.4 °F 55.4 °F 100% 29.88 in 10.0 mi Calm Calm - N/A   Clear
2:35 AM 53.6 °F 53.6 °F 100% 29.88 in 10.0 mi Calm Calm - N/A   Clear
2:55 AM 53.6 °F 53.6 °F 100% 29.88 in 0.5 mi Calm Calm - N/A Fog Fog
3:15 AM 51.8 °F 51.8 °F 100% 29.88 in 0.2 mi Calm Calm - N/A Fog Fog
3:35 AM 51.8 °F 51.8 °F 100% 29.88 in 2.0 mi Calm Calm - N/A   Scattered Clouds
3:55 AM 51.8 °F 51.8 °F 100% 29.88 in 1.2 mi Calm Calm - N/A   Mist
4:15 AM 50.0 °F 50.0 °F 100% 29.88 in 0.5 mi Calm Calm - N/A Fog Fog
4:35 AM 48.2 °F 48.2 °F 100% 29.89 in 10.0 mi Calm Calm - N/A   Clear
4:55 AM 48.2 °F 48.2 °F 100% 29.89 in 1.2 mi Calm Calm - N/A   Mist
5:15 AM 46.4 °F 46.4 °F 100% 29.89 in 10.0 mi Calm Calm - N/A   Clear
5:35 AM 48.2 °F 48.2 °F 100% 29.89 in 7.0 mi Calm Calm - N/A   Clear
5:55 AM 50.0 °F 50.0 °F 100% 29.90 in 10.0 mi Calm Calm - N/A   Clear
6:15 AM 46.4 °F 46.4 °F 100% 29.90 in 10.0 mi Calm Calm - N/A   Clear
6:35 AM 46.4 °F 46.4 °F 100% 29.90 in 10.0 mi Calm Calm - N/A   Clear
6:55 AM 48.2 °F 48.2 °F 100% 29.90 in 7.0 mi Calm Calm - N/A   Clear
7:15 AM 48.2 °F 48.2 °F 100% 29.91 in 1.2 mi Calm Calm - N/A   Mist
7:35 AM 50.0 °F 50.0 °F 100% 29.91 in 10.0 mi Calm Calm - N/A   Clear
7:55 AM 53.6 °F 53.6 °F 100% 29.91 in 10.0 mi SSW 4.6 mph - N/A   Clear
8:15 AM 55.4 °F 53.6 °F 94% 29.91 in 10.0 mi SSW 3.5 mph - N/A   Clear
8:35 AM 59.0 °F 53.6 °F 82% 29.91 in 10.0 mi Calm Calm - N/A   Clear
8:55 AM 60.8 °F 51.8 °F 72% 29.91 in 10.0 mi WSW 4.6 mph - N/A   Clear
9:15 AM 64.4 °F 51.8 °F 64% 29.92 in 7.0 mi SW 4.6 mph - N/A   Clear
9:35 AM 68.0 °F 51.8 °F 56% 29.92 in 7.0 mi WSW 5.8 mph - N/A   Clear
9:55 AM 69.8 °F 51.8 °F 53% 29.92 in 10.0 mi SW 5.8 mph - N/A   Clear
10:15 AM 71.6 °F 51.8 °F 50% 29.92 in 7.0 mi SW 5.8 mph - N/A   Clear
10:35 AM 73.4 °F 50.0 °F 44% 29.92 in 7.0 mi SSW 6.9 mph - N/A   Clear
10:55 AM 77.0 °F 46.4 °F 34% 29.92 in 7.0 mi SW 5.8 mph - N/A   Clear
11:15 AM 78.8 °F 44.6 °F 30% 29.92 in 7.0 mi WSW 5.8 mph - N/A   Clear
11:35 AM 80.6 °F 39.2 °F 23% 29.92 in 7.0 mi SSW 9.2 mph - N/A   Clear
11:55 AM 82.4 °F 33.8 °F 17% 29.91 in 7.0 mi WSW 6.9 mph - N/A   Clear
12:15 PM 82.4 °F 32.0 °F 16% 29.91 in 10.0 mi SW 6.9 mph - N/A   Clear
12:35 PM 82.4 °F 32.0 °F 16% 29.90 in 10.0 mi WSW 8.1 mph - N/A   Clear
12:55 PM 84.2 °F 32.0 °F 15% 29.89 in 10.0 mi WSW 6.9 mph - N/A   Clear
1:15 PM 82.4 °F 32.0 °F 16% 29.89 in 10.0 mi SW 3.5 mph - N/A   Clear
1:35 PM 84.2 °F 32.0 °F 15% 29.90 in 10.0 mi West 5.8 mph - N/A   Clear
1:55 PM 84.2 °F 32.0 °F 15% 29.90 in 10.0 mi West 5.8 mph - N/A   Clear
2:15 PM 84.2 °F 32.0 °F 15% 29.90 in 7.0 mi SSW 3.5 mph - N/A   Clear
2:35 PM 86.0 °F 33.8 °F 15% 29.91 in 10.0 mi WSW 11.5 mph - N/A   Clear
2:55 PM 86.0 °F 33.8 °F 15% 29.90 in 10.0 mi WSW 10.4 mph - N/A   Clear
3:15 PM 86.0 °F 32.0 °F 14% 29.90 in 10.0 mi West 11.5 mph - N/A   Clear
3:35 PM 87.8 °F 32.0 °F 14% 29.89 in 10.0 mi West 6.9 mph 12.7 mph N/A   Clear
3:55 PM 86.0 °F 32.0 °F 14% 29.89 in 10.0 mi West 12.7 mph - N/A   Clear
4:15 PM 86.0 °F 32.0 °F 14% 29.88 in 10.0 mi West 12.7 mph - N/A   Clear
4:35 PM 84.2 °F 33.8 °F 16% 29.88 in 10.0 mi West 13.8 mph 17.3 mph N/A   Clear
4:55 PM 82.4 °F 42.8 °F 25% 29.90 in 10.0 mi WNW 17.3 mph - N/A   Clear
5:15 PM 80.6 °F 44.6 °F 28% 29.91 in 10.0 mi WNW 16.1 mph - N/A   Clear
5:35 PM 78.8 °F 41.0 °F 26% 29.91 in 10.0 mi WNW 19.6 mph 24.2 mph N/A   Scattered Clouds
5:55 PM 77.0 °F 41.0 °F 28% 29.90 in 10.0 mi WNW 13.8 mph - N/A   Scattered Clouds
6:15 PM 75.2 °F 41.0 °F 29% 29.91 in 10.0 mi West 12.7 mph - N/A   Mostly Cloudy
6:35 PM 73.4 °F 39.2 °F 29% 29.91 in 10.0 mi WNW 31.1 mph 35.7 mph N/A   Overcast
6:55 PM 69.8 °F 44.6 °F 40% 29.95 in 10.0 mi West 21.9 mph 27.6 mph N/A Rain Light Rain
7:15 PM 64.4 °F 50.0 °F 59% 29.98 in 10.0 mi WNW 21.9 mph 28.8 mph N/A Rain Rain
7:35 PM 59.0 °F 53.6 °F 82% 29.99 in 7.0 mi West 9.2 mph - 0.06 in Rain Heavy Rain
7:55 PM 60.8 °F 53.6 °F 77% 29.93 in 10.0 mi South 9.2 mph 19.6 mph 0.09 in   Mostly Cloudy
8:15 PM 59.0 °F 53.6 °F 82% 29.91 in 10.0 mi SE 6.9 mph - N/A   Clear
8:35 PM 59.0 °F 53.6 °F 82% 29.88 in 10.0 mi Calm Calm - N/A   Clear
8:55 PM 57.2 °F 55.4 °F 94% 29.87 in 10.0 mi NE 4.6 mph - N/A   Clear
9:15 PM 55.4 °F 55.4 °F 100% 29.87 in 10.0 mi East 3.5 mph - N/A   Mostly Cloudy
9:35 PM 59.0 °F 55.4 °F 88% 29.87 in 10.0 mi Calm Calm - N/A   Scattered Clouds
9:55 PM 59.0 °F 55.4 °F 88% 29.87 in 10.0 mi Calm Calm - N/A   Mostly Cloudy
10:15 PM 59.0 °F 59.0 °F 100% 29.87 in 10.0 mi SSE 5.8 mph - N/A   Overcast
10:35 PM 59.0 °F 59.0 °F 100% 29.88 in 10.0 mi South 4.6 mph - N/A   Overcast
10:55 PM 59.0 °F 55.4 °F 88% 29.89 in 10.0 mi SSW 5.8 mph - N/A   Mostly Cloudy
11:15 PM 55.4 °F 53.6 °F 94% 29.88 in 10.0 mi Calm Calm - N/A   Scattered Clouds
11:35 PM 53.6 °F 53.6 °F 100% 29.87 in 10.0 mi Calm Calm - N/A   Clear
11:55 PM 53.6 °F 53.6 °F 100% 29.87 in 10.0 mi Calm Calm - N/A   Scattered Clouds